Location: Ripley
(48.3812°N, 115.4473°W)
Time: 20:17:28
(UTC+00:00)

ISS - Visible Passes

Search period start: 16 January 2022 00:00
Search period end: 26 January 2022 00:00
Orbit: 414 x 422 km, 51.6° (Epoch: 16 January)

Date Brightness Start Highest point End Pass type
(mag) Time Alt. Az. Time Alt. Az. Time Alt. Az.
18 Jan -1.3 01:47:17 10° SSE 01:47:55 11° SE 01:47:55 11° SE visible
19 Jan -2.1 02:33:20 10° SW 02:35:13 26° SSW 02:35:13 26° SSW visible
20 Jan -2.4 01:45:53 10° SSW 01:48:39 25° SE 01:49:30 22° ESE visible
20 Jan -0.6 03:21:50 10° WSW 03:22:27 15° WSW 03:22:27 15° WSW visible
21 Jan -1.7 00:58:45 10° S 01:00:55 16° SE 01:03:06 10° E visible
21 Jan -3.2 02:33:56 10° WSW 02:36:39 55° SW 02:36:39 55° SW visible
22 Jan -3.5 01:46:08 10° SW 01:49:24 54° SSE 01:50:49 29° E visible
22 Jan -0.7 03:22:56 10° W 03:23:46 16° W 03:23:46 16° W visible
23 Jan -2.8 00:58:30 10° SW 01:01:35 36° SE 01:04:41 10° ENE visible
23 Jan -3.3 02:34:57 10° W 02:37:53 56° NW 02:37:53 56° NW visible
24 Jan -3.8 01:46:59 10° WSW 01:50:20 79° NNW 01:51:58 28° ENE visible
24 Jan -0.7 03:24:07 10° WNW 03:24:55 16° WNW 03:24:55 16° WNW visible
25 Jan -3.7 00:59:06 10° WSW 01:02:26 77° SSE 01:05:47 10° ENE visible
25 Jan -3.0 02:36:07 10° W 02:38:59 44° NNW 02:38:59 44° NNW visible
